User: anonymous   Login
Location: Unspecified
(0.0000°N, 0.0000°E)
Time: 05:47:13
(UTC+00:00)
Language:

SWISSCUBE - Orbit

View from above orbital plane
View from above orbital plane
View from above satellite
View from above satellite

Ground track
Ground track

The orbit data is extracted from the following two-line orbital elements,

1 35932U 09051B   15142.80196603  .00000770  00000-0  18796-3 0  9991
2 35932 098.4054 261.3651 0008768 063.1828 297.0265 14.55385153300278
Epoch (UTC): 22 May 2015 19:14:49
Eccentricity: 0.0008768
inclination: 98.4054°
perigee height: 702 km
apogee height: 714 km
right ascension of ascending node: 261.3651°
argument of perigee: 63.1828°
revolutions per day: 14.55385153
mean anomaly at epoch: 297.0265°
orbit number at epoch: 30027

The dashed part of the orbit path shows where the satellite is in the earth's shadow,  

DLR